EW6005 Weather Reports


Display with metric or nautical units.
time (UTC)temp
F
wind
direction
speed
MPH
gust
MPH
rain 1hr
in
rain 24hr
in
rain mn
in
humidity
%
barometer
mb
20260904072849 79 209 0.0 0.0 0.00 0.37 0.00 100 998.7
20260904072349 79 209 0.0 0.0 0.00 0.37 0.00 100 998.8
20260904071849 79 209 0.0 0.0 0.00 0.37 0.00 100 998.9
20260904071612 79 209 0.0 0.0 0.00 0.37 0.00 100 998.9
20260904070850 79 209 0.0 0.0 0.00 0.37 0.00 100 998.9
20260904070348 79 209 0.0 0.0 0.00 0.37 0.00 100 998.9
20260904065848 79 209 0.0 0.0 0.00 0.37 0.00 100 998.9
20260904065349 79 209 0.0 0.0 0.00 0.37 0.00 100 998.9
20260904064850 79 209 0.0 0.0 0.00 0.37 0.00 100 998.9
20260904064348 79 209 0.0 0.0 0.00 0.37 0.00 100 998.8
20260904063848 79 209 0.0 0.0 0.00 0.37 0.00 100 998.8
20260904063348 79 209 0.0 0.0 0.00 0.37 0.00 100 998.8
20260904062849 79 209 0.0 0.0 0.00 0.37 0.00 100 998.8
20260904062612 79 209 0.0 0.0 0.00 0.37 0.00 100 998.8
20260904061848 79 209 0.0 0.0 0.00 0.37 0.00 100 998.7
20260904061614 79 209 0.0 0.0 0.00 0.37 0.00 100 998.7
20260904060848 79 209 0.0 0.0 0.00 0.37 0.00 100 998.8
20260904060830 79 209 0.0 0.0 0.00 0.37 0.00 100 998.9
20260904055848 79 209 0.0 0.0 0.00 0.37 0.00 100 998.9
20260904055348 79 209 0.0 0.0 0.00 0.37 0.00 100 999.0
20260904054850 79 209 0.0 0.0 0.00 0.37 0.00 100 998.9
20260904054613 79 209 0.0 0.0 0.00 0.37 0.00 99 998.9
20260904053850 79 209 0.0 0.0 0.00 0.38 0.00 99 998.8
20260904053349 79 209 0.0 0.0 0.00 0.39 0.00 99 998.7
20260904052848 79 209 0.0 0.0 0.00 0.40 0.00 99 998.7
20260904052348 79 209 0.0 0.0 0.00 0.41 0.00 99 998.7
20260904051848 79 209 0.0 0.0 0.00 0.42 0.00 99 998.8
20260904051349 79 209 0.0 0.0 0.00 0.44 0.00 99 998.8
20260904050848 79 209 0.0 0.0 0.00 0.45 0.00 99 998.7
20260904050348 79 209 0.0 0.0 0.00 0.46 0.00 99 998.7
20260904045845 79 209 0.0 0.0 0.00 0.46 0.46 99 998.8
20260904045344 79 209 0.0 0.0 0.00 0.47 0.46 99 998.7
20260904045104 79 209 0.0 0.0 0.00 0.48 0.46 99 998.7
20260904044345 79 209 0.0 0.0 0.00 0.49 0.46 99 998.8
20260904043844 79 209 0.0 0.0 0.00 0.50 0.46 99 998.7
20260904043345 79 209 0.0 0.0 0.00 0.51 0.46 99 998.7
20260904042845 79 209 0.0 0.0 0.00 0.53 0.46 99 998.7
20260904042344 79 209 0.0 0.0 0.00 0.54 0.46 99 998.7
20260904041846 79 209 0.0 0.0 0.00 0.56 0.46 99 998.7
20260904041826 79 209 0.0 0.0 0.00 0.57 0.46 99 998.7
20260904041104 79 209 0.0 0.0 0.00 0.58 0.46 99 998.7
20260904040343 79 209 0.0 0.0 0.00 0.58 0.46 99 998.8
20260904035844 79 209 0.0 2.0 0.00 0.59 0.46 99 998.8
20260904035342 79 209 1.0 2.0 0.00 0.60 0.46 99 998.7
20260904034842 79 209 0.0 2.0 0.00 0.60 0.46 99 998.7
20260904034338 79 235 0.0 0.0 0.00 0.60 0.46 99 998.8
20260904033840 78 235 0.0 0.0 0.00 0.60 0.46 99 998.7
20260904033336 78 235 0.0 0.0 0.00 0.60 0.46 99 998.7
20260904032836 78 235 0.0 0.0 0.00 0.60 0.46 99 998.7
20260904032557 78 235 0.0 0.0 0.00 0.60 0.46 99 998.7
20260904031833 79 235 0.0 0.0 0.00 0.60 0.46 99 998.8
20260904031332 78 235 0.0 0.0 0.00 0.60 0.46 99 998.7
20260904030830 79 235 0.0 0.0 0.00 0.60 0.46 99 998.7
20260904030549 78 235 0.0 0.0 0.00 0.60 0.46 99 998.8
20260904025829 79 235 0.0 0.0 0.00 0.60 0.46 99 998.8
20260904025331 79 235 0.0 0.0 0.00 0.60 0.46 99 998.8
20260904024825 79 235 0.0 0.0 0.00 0.60 0.46 99 998.6
20260904024548 79 235 0.0 0.0 0.00 0.60 0.46 99 998.5
20260904023825 79 235 0.0 0.0 0.00 0.60 0.46 99 998.5
20260904023322 79 235 0.0 0.0 0.00 0.60 0.46 99 998.5
20260904022814 79 235 0.0 0.0 0.00 0.60 0.46 99 998.5
20260904022309 79 235 0.0 0.0 0.00 0.60 0.46 99 998.4
20260904021806 79 235 0.0 0.0 0.00 0.60 0.46 99 998.3
20260904021305 79 235 0.0 0.0 0.00 0.60 0.46 99 998.2
20260904020802 79 235 0.0 0.0 0.00 0.60 0.46 99 998.2
20260904020303 78 235 0.0 0.0 0.00 0.60 0.46 99 998.1
20260904015802 79 235 0.0 0.0 0.00 0.60 0.46 99 997.9
20260904015302 78 235 0.0 0.0 0.00 0.60 0.46 99 997.9
20260904014802 79 235 0.0 0.0 0.00 0.60 0.46 99 997.9
20260904014258 79 235 0.0 0.0 0.00 0.60 0.46 99 997.8
20260904013759 79 235 0.0 0.0 0.00 0.60 0.46 99 997.7
20260904013258 79 235 0.0 0.0 0.00 0.60 0.46 99 997.7
20260904012758 79 235 0.0 0.0 0.00 0.60 0.46 99 997.6
20260904012258 79 235 0.0 0.0 0.00 0.60 0.46 99 997.6
20260904011756 79 235 0.0 0.0 0.00 0.61 0.46 99 997.6
20260904011257 79 235 0.0 0.0 0.00 0.61 0.46 99 997.7
20260904010754 79 235 0.0 0.0 0.00 0.61 0.46 99 997.7
20260904010254 79 235 0.0 0.0 0.00 0.62 0.46 99 997.6
20260904005754 79 235 0.0 0.0 0.00 0.63 0.46 98 997.6
20260904005254 79 235 0.0 0.0 0.00 0.67 0.46 98 997.7
20260904005017 79 235 0.0 0.0 0.00 0.76 0.46 98 997.6
20260904004511 79 235 0.0 0.0 0.00 1.04 0.46 98 997.6
20260904003751 79 235 0.0 1.0 0.00 1.25 0.46 98 997.7
20260904003507 79 235 0.0 1.0 0.00 1.48 0.46 98 997.7
20260904003009 79 235 0.0 1.0 0.00 1.48 0.46 98 997.8
20260904002246 79 235 0.0 1.0 0.00 1.48 0.46 98 997.9
20260904001747 79 235 0.0 1.0 0.00 1.48 0.46 98 997.9
20260904001242 79 235 0.0 0.0 0.00 1.48 0.46 98 997.9
20260904000742 79 235 0.0 0.0 0.00 1.48 0.46 99 998.0
20260904000242 79 235 0.0 0.0 0.00 1.48 0.46 99 998.0
20260903235744 79 235 0.0 0.0 0.00 1.48 0.46 98 998.0
20260903235238 79 235 0.0 0.0 0.00 1.48 0.46 98 998.0
20260903234738 79 235 0.0 0.0 0.00 1.48 0.46 98 998.0
20260903234240 79 235 0.0 0.0 0.00 1.49 0.46 99 998.0
20260903233739 79 235 0.0 1.0 0.00 1.49 0.46 99 998.0
20260903233238 79 235 0.0 1.0 0.00 1.49 0.46 99 998.1
20260903232738 79 235 0.0 1.0 0.00 1.49 0.46 99 998.1
20260903232238 79 235 0.0 1.0 0.00 1.49 0.46 99 998.2
20260903231739 79 235 0.0 1.0 0.00 1.49 0.46 98 998.3
20260903231238 79 163 0.0 1.0 0.00 1.49 0.46 98 998.3
20260903230952 79 163 0.0 1.0 0.00 1.49 0.46 98 998.3
20260903230233 79 163 0.0 1.0 0.00 1.51 0.46 99 998.3
20260903225734 79 163 0.0 1.0 0.00 1.54 0.46 99 998.3
20260903225234 79 163 0.0 1.0 0.00 1.67 0.46 99 998.2
20260903224734 79 163 0.0 1.0 0.00 1.69 0.46 99 998.2
20260903224234 79 168 0.0 1.0 0.00 1.70 0.46 99 998.2
20260903223734 79 259 0.0 1.0 0.00 1.70 0.46 99 998.1
20260903223234 79 175 0.0 1.0 0.00 1.70 0.46 99 998.1
20260903222734 79 213 0.0 1.0 0.00 1.70 0.46 99 998.1
20260903222710 79 213 0.0 1.0 0.00 1.70 0.46 99 998.1
20260903221949 79 213 0.0 1.0 0.00 1.70 0.46 99 998.2
20260903221230 79 213 0.0 0.0 0.00 1.70 0.46 99 998.3
20260903220730 79 213 0.0 1.0 0.00 1.70 0.46 99 998.4
20260903220230 79 213 0.0 1.0 0.01 1.70 0.46 99 998.6
20260903220000 79 213 0.0 1.0 0.01 1.70 0.46 99 998.5
20260903215232 79 287 0.0 0.0 0.01 1.70 0.46 99 998.6
20260903215212 78 287 0.0 0.0 0.01 1.70 0.46 99 998.7
20260903214230 78 287 0.0 0.0 0.01 1.70 0.46 99 998.7
20260903213729 78 0 0.0 0.0 0.02 1.70 0.46 99 998.8
20260903213230 78 0 0.0 0.0 0.02 1.70 0.46 98 998.7
20260903212730 78 0 0.0 0.0 0.02 1.70 0.46 98 998.8
20260903212230 78 0 0.0 0.0 0.02 1.70 0.46 98 998.9
20260903211959 78 0 0.0 0.0 0.02 1.70 0.46 98 999.0
20260903211452 78 0 0.0 0.0 0.02 1.70 0.46 98 999.1
20260903210730 78 0 0.0 0.0 0.02 1.70 0.46 98 999.1
20260903210230 78 0 0.0 0.0 0.02 1.69 0.45 98 999.2
20260903205726 78 0 0.0 0.0 0.03 1.69 0.45 98 999.2
20260903205227 78 0 0.0 0.0 0.03 1.69 0.45 98 999.3
20260903205213 78 0 0.0 0.0 0.04 1.69 0.45 98 999.4
20260903204226 78 0 0.0 0.0 0.04 1.69 0.45 98 999.4
20260903203726 78 0 0.0 0.0 0.03 1.68 0.45 98 999.4
20260903203226 78 0 0.0 0.0 0.03 1.68 0.44 98 999.5
20260903202725 78 0 0.0 1.0 0.03 1.68 0.44 98 999.5
20260903202227 78 0 0.0 1.0 0.03 1.68 0.44 98 999.4
20260903202211 78 0 0.0 1.0 0.03 1.68 0.44 98 999.5
20260903201222 78 0 0.0 1.0 0.03 1.68 0.44 98 999.5
20260903200721 77 0 0.0 0.0 0.04 1.68 0.44 98 999.6
20260903200223 77 0 0.0 1.0 0.03 1.67 0.43 97 999.5
20260903195721 77 0 0.0 1.0 0.04 1.66 0.42 97 999.4
20260903195223 77 0 0.0 1.0 0.07 1.66 0.42 97 999.3
20260903194722 77 0 0.0 0.0 0.13 1.65 0.41 97 999.4
20260903194224 77 0 0.0 0.0 0.22 1.65 0.41 97 999.4
20260903193721 77 0 0.0 0.0 0.29 1.65 0.41 96 999.6
20260903193222 78 0 0.0 0.0 0.32 1.65 0.41 96 999.7
20260903192715 78 0 0.0 1.0 0.32 1.65 0.41 96 999.7
20260903192654 78 0 0.0 1.0 0.32 1.65 0.41 96 999.8
20260903191705 78 0 0.0 1.0 0.32 1.65 0.41 96 1000.1
20260903191428 79 0 0.0 1.0 0.32 1.65 0.41 96 1000.1
20260903190923 79 0 0.0 1.0 0.31 1.64 0.41 96 999.9
20260903190205 79 0 0.0 1.0 0.31 1.64 0.40 96 1000.0
20260903185706 80 0 0.0 2.0 0.29 1.62 0.39 96 1000.2
20260903185205 80 0 0.0 1.0 0.26 1.59 0.36 96 1000.4
20260903184703 80 0 0.0 1.0 0.19 1.52 0.28 96 1000.5
20260903184204 81 0 0.0 1.0 0.08 1.41 0.19 95 1000.8
20260903183704 81 292 0.0 1.0 0.03 1.36 0.12 95 1000.8
20260903183425 81 0 0.0 2.0 0.00 1.33 0.09 95 1000.6
20260903182921 81 292 0.0 2.0 0.00 1.33 0.09 94 1000.6
20260903182201 82 129 1.0 3.0 0.00 1.33 0.09 94 1000.2
20260903181700 82 195 1.0 3.0 0.00 1.33 0.09 94 1000.2
20260903181159 83 161 1.0 3.0 0.00 1.33 0.09 94 1000.4
20260903180655 83 0 1.0 2.0 0.00 1.33 0.09 97 1000.3
20260903180426 84 0 1.0 4.0 0.00 1.33 0.09 97 1000.2
20260903175653 84 0 0.0 4.0 0.00 1.33 0.09 97 1000.4
20260903175154 84 0 0.0 1.0 0.00 1.33 0.09 98 1000.3
20260903174646 84 151 0.0 2.0 0.00 1.33 0.09 98 1000.2
20260903174144 84 84 0.0 2.0 0.00 1.33 0.09 98 1000.3
20260903173641 84 32 0.0 2.0 0.00 1.33 0.09 98 1000.4
20260903173402 84 83 0.0 0.0 0.00 1.33 0.09 98 1000.4
20260903172638 84 271 0.0 0.0 0.00 1.33 0.09 97 1000.3
20260903172136 84 202 0.0 0.0 0.00 1.33 0.09 98 1000.3
20260903171632 84 202 0.0 0.0 0.00 1.33 0.09 98 1000.2
20260903171132 84 202 0.0 0.0 0.00 1.33 0.09 98 1000.1
20260903170630 84 202 0.0 0.0 0.00 1.33 0.09 98 1000.0
20260903170127 84 202 0.0 0.0 0.00 1.33 0.09 98 1000.2
20260903165626 84 202 0.0 0.0 0.00 1.33 0.09 98 1000.3
20260903165124 83 202 0.0 0.0 0.00 1.33 0.09 98 1000.4
20260903164624 83 196 0.0 0.0 0.00 1.33 0.09 98 1000.5
20260903164121 83 196 0.0 0.0 0.00 1.33 0.09 98 1000.5
20260903163622 83 196 0.0 0.0 0.00 1.33 0.09 99 1000.4
20260903163122 83 196 0.0 0.0 0.00 1.33 0.09 99 1000.3
20260903162619 83 196 0.0 0.0 0.00 1.33 0.09 99 1000.2
20260903162117 83 196 0.0 0.0 0.00 1.33 0.09 99 1000.1
20260903161617 83 196 0.0 0.0 0.00 1.33 0.09 98 1000.1
20260903161118 83 0 0.0 0.0 0.00 1.33 0.09 99 1000.1
20260903160615 83 286 0.0 0.0 0.00 1.33 0.09 99 1000.2
20260903160116 83 0 0.0 0.0 0.00 1.33 0.09 99 1000.2
20260903155834 83 0 0.0 0.0 0.00 1.33 0.09 99 1000.3
20260903155110 83 0 0.0 0.0 0.00 1.33 0.09 99 1000.2
20260903154608 83 0 0.0 0.0 0.00 1.33 0.09 99 1000.2
20260903154107 83 0 0.0 0.0 0.00 1.33 0.09 99 1000.3
20260903153607 83 0 0.0 0.0 0.00 1.33 0.09 100 1000.3
20260903153105 83 0 0.0 0.0 0.00 1.33 0.09 100 1000.3
20260903152834 83 0 0.0 0.0 0.00 1.33 0.09 100 1000.4
20260903152324 83 0 0.0 0.0 0.00 1.33 0.09 100 1000.4
20260903151605 83 0 0.0 0.0 0.00 1.33 0.09 100 1000.4
20260903151105 82 0 0.0 0.0 0.00 1.33 0.09 100 1000.5
20260903150606 82 0 0.0 0.0 0.00 1.33 0.09 100 1000.5
20260903150105 82 0 0.0 0.0 0.00 1.33 0.09 100 1000.6
20260903145602 82 0 0.0 0.0 0.00 1.33 0.09 100 1000.7
20260903145103 82 0 0.0 0.0 0.00 1.33 0.09 100 1000.8
20260903144559 81 0 0.0 0.0 0.00 1.33 0.09 100 1000.8
20260903144059 81 0 0.0 0.0 0.00 1.33 0.09 100 1000.8
20260903143559 81 0 0.0 0.0 0.00 1.33 0.09 100 1000.9
20260903143324 81 0 0.0 0.0 0.00 1.33 0.09 100 1000.8
20260903142559 81 0 0.0 0.0 0.00 1.33 0.09 100 1000.7
20260903142059 81 0 0.0 0.0 0.00 1.33 0.09 100 1000.8
20260903141558 81 0 0.0 0.0 0.00 1.33 0.09 100 1000.7
20260903141057 81 0 0.0 0.0 0.00 1.33 0.09 100 1000.7
20260903140827 81 0 0.0 0.0 0.00 1.33 0.09 100 1000.6
20260903140057 81 0 0.0 0.0 0.00 1.33 0.09 100 1000.5
20260903135557 80 0 0.0 0.0 0.00 1.33 0.09 100 1000.4
20260903135318 80 0 0.0 0.0 0.00 1.33 0.09 100 1000.4
20260903134557 80 0 0.0 0.0 0.00 1.33 0.09 100 1000.3
20260903134057 80 0 0.0 0.0 0.00 1.33 0.09 100 1000.3
20260903133557 80 0 0.0 0.0 0.00 1.33 0.09 100 1000.2
20260903133059 80 0 0.0 0.0 0.00 1.33 0.09 99 1000.2
20260903132821 80 0 0.0 0.0 0.00 1.33 0.09 99 1000.2
20260903132321 80 0 0.0 0.0 0.00 1.33 0.09 99 1000.2
20260903131557 80 0 0.0 0.0 0.00 1.33 0.09 99 1000.2
20260903131058 80 0 0.0 0.0 0.00 1.33 0.09 99 1000.2
20260903130558 80 0 0.0 0.0 0.00 1.33 0.09 99 1000.2
20260903130057 80 0 0.0 0.0 0.00 1.33 0.09 99 1000.2
20260903125557 80 0 0.0 0.0 0.00 1.33 0.09 99 1000.1
20260903125053 79 0 0.0 0.0 0.00 1.33 0.09 99 1000.1
20260903124814 79 0 0.0 0.0 0.00 1.33 0.09 99 1000.0
20260903124052 79 0 0.0 0.0 0.00 1.33 0.09 99 999.9
20260903123553 79 0 0.0 0.0 0.00 1.33 0.09 99 999.8
20260903123053 79 0 0.0 0.0 0.00 1.33 0.09 99 999.7
20260903122813 79 0 0.0 0.0 0.00 1.33 0.09 99 999.6
20260903122053 79 0 0.0 0.0 0.00 1.33 0.09 99 999.4
20260903121553 79 0 0.0 0.0 0.00 1.33 0.09 99 999.4
20260903121051 79 0 0.0 0.0 0.00 1.33 0.09 99 999.3
20260903120545 79 0 0.0 0.0 0.00 1.33 0.09 99 999.3
20260903120045 79 0 0.0 0.0 0.00 1.33 0.09 99 999.3
20260903115545 79 0 0.0 0.0 0.00 1.33 0.09 99 999.3
20260903115045 79 0 0.0 0.0 0.00 1.33 0.09 99 999.4
20260903114544 79 0 0.0 0.0 0.00 1.33 0.09 99 999.4
20260903114045 79 0 0.0 0.0 0.00 1.33 0.09 99 999.3
20260903113545 79 0 0.0 0.0 0.00 1.33 0.09 99 999.2
20260903113526 79 0 0.0 1.0 0.00 1.33 0.09 99 999.1
20260903112545 79 0 1.0 2.0 0.00 1.33 0.09 99 999.1
20260903112041 79 0 0.0 2.0 0.00 1.33 0.09 99 999.1
20260903111538 79 0 0.0 0.0 0.00 1.33 0.09 99 999.2
20260903111038 79 0 0.0 0.0 0.00 1.33 0.09 99 999.2
20260903110538 79 0 0.0 0.0 0.00 1.33 0.09 99 999.2
20260903110039 79 0 0.0 0.0 0.00 1.33 0.09 99 999.3
20260903105539 79 0 0.0 0.0 0.00 1.33 0.09 98 999.2
20260903105040 79 0 0.0 0.0 0.00 1.33 0.09 98 999.1
20260903104535 79 0 0.0 1.0 0.00 1.33 0.09 98 999.0
20260903104034 79 0 0.0 2.0 0.00 1.33 0.09 98 998.9
20260903103759 79 0 0.0 2.0 0.00 1.33 0.09 98 998.9
20260903103035 79 0 0.0 0.0 0.00 1.33 0.09 98 998.9
20260903102535 79 0 0.0 0.0 0.00 1.33 0.09 98 998.9
20260903102036 79 0 0.0 0.0 0.00 1.33 0.09 98 998.9
20260903101534 79 0 0.0 0.0 0.00 1.33 0.09 98 998.9
20260903101034 79 0 0.0 0.0 0.00 1.33 0.09 98 998.9
20260903100535 79 0 0.0 0.0 0.00 1.33 0.09 98 998.9
20260903100523 79 0 0.0 0.0 0.00 1.33 0.09 98 999.0
20260903095531 79 0 0.0 0.0 0.00 1.33 0.09 98 999.0
20260903095031 79 0 0.0 0.0 0.00 1.33 0.09 98 999.0
20260903094531 79 0 0.0 0.0 0.00 1.33 0.09 98 998.9
20260903094031 79 0 0.0 0.0 0.00 1.33 0.09 98 998.9
20260903093531 79 0 0.0 0.0 0.00 1.33 0.09 98 998.9
20260903093030 79 0 0.0 0.0 0.00 1.33 0.09 98 998.9
20260903092757 79 0 0.0 0.0 0.00 1.33 0.09 98 998.8
20260903092033 79 0 0.0 0.0 0.00 1.33 0.09 98 998.8
20260903091526 79 0 0.0 0.0 0.00 1.33 0.09 98 998.9
20260903091027 79 0 0.0 0.0 0.00 1.33 0.09 98 998.9
20260903090526 79 0 0.0 0.0 0.00 1.33 0.09 98 998.8
20260903090026 79 0 0.0 0.0 0.00 1.33 0.09 98 998.8
20260903085527 80 0 0.0 0.0 0.00 1.33 0.09 98 998.8
20260903085027 80 0 0.0 0.0 0.00 1.33 0.09 98 998.7
20260903084526 80 0 0.0 0.0 0.00 1.33 0.09 98 998.8
20260903084024 80 0 0.0 0.0 0.00 1.33 0.09 98 998.8
20260903083522 80 0 0.0 0.0 0.00 1.33 0.09 98 998.8
20260903083018 80 0 0.0 0.0 0.00 1.33 0.09 98 998.8
20260903082521 80 0 0.0 0.0 0.00 1.33 0.09 98 998.8
20260903082014 80 0 0.0 0.0 0.00 1.33 0.09 98 998.7
20260903081513 80 0 0.0 0.0 0.00 1.33 0.09 98 998.7
20260903081013 80 0 0.0 0.0 0.00 1.33 0.09 98 998.7
20260903080511 80 0 0.0 0.0 0.00 1.33 0.09 98 998.7
20260903080010 80 0 0.0 0.0 0.00 1.33 0.09 98 998.6
20260903075510 80 0 0.0 0.0 0.00 1.33 0.09 98 998.7
20260903075224 80 0 0.0 0.0 0.00 1.33 0.09 98 998.6
20260903074505 80 0 0.0 0.0 0.00 1.33 0.09 98 998.5
20260903074005 80 0 0.0 0.0 0.00 1.33 0.09 98 998.5
20260903073503 80 0 0.0 0.0 0.00 1.33 0.09 98 998.6